Temp
65 65 65 65 65 65 65 64 63 63 64 64 64 64 63 63 63 63 63 63 64 64 63 63 63 63 59 51 54 62 69 66 63 61 58 57 53 51 48 49 51 47 48 50 48 48 48
65 65 65 65 65 65 65 65 63 63 64 64 64 63 62 62 62 62 62 63 64 63 63 62 63 62 54 46 61 63 60 61 60 58 56 56 54 54 50 50 49 47 48 48 47 47 47
65 65 65 65 65 64 64 64 63 63 63 64 63 62 61 61 61 61 62 62 63 63 62 62 62 61 52 52 61 60 61 58 58 57 54 55 55 51 50 47 50 47 44 44 44 45 44
65 65 64 64 64 63 63 62 62 62 63 63 63 62 61 61 61 60 60 61 62 62 62 61 62 56 49 59 57 59 59 57 59 59 56 56 55 52 49 48 47 42 39 34 42 43 43
63 63 63 63 63 62 62 62 62 62 62 62 61 61 61 61 60 60 60 60 62 62 63 62 55 51 48 61 55 56 55 54 55 56 55 63 54 48 47 41 36 37 32 33 39 43 40
62 62 62 62 62 61 61 61 60 61 61 60 60 59 59 60 60 60 59 61 62 62 61 62 61 47 52 51 54 55 54 55 52 52 52 50 46 40 38 36 30 32 30 35 36 39 38
62 61 61 60 60 60 60 60 60 60 60 59 59 58 58 58 58 59 57 54 51 50 51 53 52 51 53 54 56 52 54 52 51 47 40 43 36 32 38 38 38 36 34 33 38 40 36
60 60 60 60 60 60 60 59 59 59 59 59 58 57 57 58 58 58 55 49 48 49 40 50 50 51 53 53 48 50 53 45 43 38 41 36 32 40 43 41 39 37 33 34 36 37 35
60 59 59 59 59 59 58 58 58 58 58 57 57 57 57 57 57 55 50 50 54 51 37 45 50 50 48 51 46 46 48 46 41 37 37 33 38 43 42 37 36 33 32 32 34 32 33
59 59 59 59 59 58 57 57 57 58 57 57 57 57 57 56 54 50 48 54 54 51 33 42 44 46 49 47 42 49 47 44 41 38 38 36 39 39 36 36 37 30 34 33 32 28 25
59 58 58 58 58 58 57 57 57 57 57 56 56 56 56 56 51 48 52 53 52 46 24 46 44 51 48 43 42 43 46 43 39 39 37 35 34 32 33 34 36 32 33 31 29 25 22
58 58 58 58 58 57 57 57 57 57 57 56 56 56 56 52 50 51 53 51 48 34 23 39 43 43 42 42 43 42 42 43 41 36 34 34 35 35 34 33 33 34 30 29 25 23 13
57 57 57 57 57 57 57 56 56 57 56 55 55 56 54 54 45 52 51 46 32 25 45 40 39 42 41 41 41 39 37 33 34 30 28 31 32 32 35 30 31 29 27 22 18 12 20
57 57 57 57 57 57 57 57 57 56 56 55 55 55 52 54 52 53 51 40 26 37 38 44 43 42 39 40 38 39 35 32 36 32 28 28 28 29 33 31 28 27 29 26 19 16 17
57 57 57 57 57 57 56 56 56 56 55 55 55 45 46 50 53 53 43 29 30 35 43 40 41 35 34 38 36 34 31 32 32 33 31 30 27 32 32 33 33 28 24 30 23 21 18
56 56 57 56 56 56 56 56 56 55 55 54 45 45 43 51 49 46 36 34 35 43 43 41 32 36 30 33 34 34 33 34 31 34 35 31 23 27 29 32 32 29 31 23 22 16 15
56 56 56 56 55 55 55 55 55 55 55 54 40 37 46 49 47 39 31 30 38 43 44 38 34 35 34 32 33 32 35 34 35 33 36 30 26 23 28 26 26 25 26 23 22 21 17
56 56 56 55 55 54 54 55 54 54 54 48 38 29 46 48 34 30 28 35 43 40 41 36 34 32 34 34 31 32 32 35 36 35 27 31 26 21 25 26 29 25 23 23 20 18 21
56 55 55 55 54 54 54 54 54 54 54 39 32 36 46 45 28 27 33 36 37 35 37 36 35 34 33 29 26 33 30 35 34 31 29 29 22 17 21 22 25 22 23 25 25 23 19
55 55 54 54 54 54 54 53 53 53 53 41 35 29 35 37 38 33 30 32 32 38 35 36 35 34 32 29 32 28 28 33 34 33 38 34 21 23 20 24 30 23 25 26 23 17 19
54 54 54 54 54 54 53 53 53 53 52 40 32 29 32 26 29 29 30 30 29 28 33 32 32 31 29 27 24 26 30 30 31 35 33 29 20 22 25 27 27 26 26 26 22 23 19
54 54 54 54 54 54 53 53 52 52 52 40 31 30 33 28 30 29 30 27 28 31 30 29 28 31 29 27 29 25 27 26 29 28 27 26 20 21 18 24 24 20 24 24 24 24 23
54 53 53 54 54 53 53 52 52 52 50 38 38 36 34 29 25 23 24 28 28 31 32 34 33 29 24 29 32 34 34 33 32 30 25 24 20 18 15 20 20 15 18 22 20 22 22
53 53 53 53 53 53 53 52 52 52 50 41 40 38 32 23 25 26 29 29 28 29 27 31 32 29 31 34 32 31 30 30 30 30 32 24 21 21 17 17 11 20 26 26 24 24 23
53 53 53 53 53 52 53 52 52 51 51 40 42 38 33 24 25 26 28 28 25 27 25 28 30 31 32 31 24 14 18 22 22 26 27 29 25 20 15 13 18 22 22 22 21 21 20
53 53 53 53 52 52 52 51 51 51 51 43 41 42 34 28 21 31 22 24 19 16 21 25 27 27 30 27 25 14 11 18 14 18 25 27 25 19 17 11 7 16 21 24 23 13 19
53 53 53 52 52 52 52 51 50 51 51 45 41 43 36 29 28 28 25 22 27 23 25 19 26 26 25 21 19 15 16 20 12 18 17 15 14 12 12 14 15 22 24 24 16 19 21
52 52 52 52 51 51 51 50 50 51 51 44 41 42 38 32 31 33 34 29 26 22 23 23 25 18 22 19 19 17 13 16 12 17 14 14 13 7 9 4 4 23 21 20 22 22 20
52 52 52 51 51 51 50 50 50 50 51 48 38 41 43 35 33 35 37 38 36 36 30 26 22 21 27 21 21 22 21 11 14 14 21 14 21 17 18 17 24 22 20 18 23 23 17
MSLP
1025.30 1025.04 1024.71 1024.29 1023.89 1023.51 1023.10 1022.78 1022.40 1021.92 1021.40 1020.71 1020.00 1019.44 1018.89 1018.29 1017.64 1016.99 1016.38 1015.76 1015.27 1014.82 1014.47 1014.21 1014.18 1014.01 1013.66 1013.77 1012.60 1012.08 1012.00 1011.98 1011.95 1012.16 1012.19 1012.18 1012.20 1012.21 1012.22 1012.00 1012.04 1011.98 1011.96 1012.36 1012.62 1012.98 1013.18
1025.48 1025.27 1024.91 1024.41 1024.01 1023.63 1023.23 1022.80 1022.44 1021.97 1021.39 1020.76 1020.13 1019.51 1018.87 1018.15 1017.38 1016.66 1015.94 1015.38 1014.85 1014.26 1014.02 1013.96 1013.92 1013.91 1013.87 1013.55 1012.00 1011.98 1012.03 1012.01 1012.04 1012.16 1012.07 1012.11 1012.08 1011.99 1011.96 1011.90 1012.02 1012.06 1012.30 1012.47 1012.72 1013.05 1013.27
1025.54 1025.23 1024.96 1024.59 1024.19 1023.77 1023.40 1022.98 1022.58 1022.02 1021.45 1020.89 1020.28 1019.61 1018.89 1018.13 1017.29 1016.45 1015.63 1014.85 1014.33 1013.91 1013.59 1013.49 1013.61 1013.78 1013.59 1012.53 1011.84 1011.97 1012.11 1012.19 1012.09 1012.09 1012.17 1012.14 1012.16 1012.21 1012.21 1012.19 1012.10 1012.16 1012.59 1012.63 1012.60 1012.82 1013.29
1025.64 1025.40 1025.20 1024.82 1024.45 1024.05 1023.72 1023.34 1022.82 1022.25 1021.57 1021.04 1020.42 1019.67 1018.92 1018.12 1017.28 1016.38 1015.36 1014.27 1013.65 1013.37 1013.22 1013.26 1013.37 1013.59 1012.87 1012.10 1012.03 1012.10 1012.15 1011.99 1012.00 1012.01 1012.19 1012.16 1012.19 1012.33 1012.32 1012.44 1012.59 1012.96 1013.17 1013.29 1012.53 1013.06 1013.50
1026.15 1025.98 1025.63 1025.26 1024.78 1024.39 1023.97 1023.59 1023.11 1022.51 1021.79 1021.20 1020.50 1019.81 1018.87 1018.01 1017.21 1016.27 1015.14 1013.94 1013.19 1013.02 1013.01 1013.21 1013.53 1013.41 1012.68 1012.05 1012.04 1012.11 1012.17 1012.26 1012.21 1012.14 1012.22 1012.17 1012.36 1012.65 1012.81 1013.05 1013.50 1013.53 1013.54 1013.26 1012.84 1012.84 1013.34
1026.64 1026.45 1026.10 1025.77 1025.35 1024.91 1024.41 1023.92 1023.41 1022.72 1022.04 1021.36 1020.61 1019.94 1019.07 1017.90 1017.18 1016.16 1015.00 1013.59 1013.11 1013.02 1013.05 1013.20 1013.16 1013.66 1012.66 1012.13 1012.10 1012.24 1012.34 1012.38 1012.32 1012.31 1012.43 1012.61 1012.98 1013.31 1013.60 1013.74 1013.61 1013.48 1013.77 1013.35 1013.18 1012.98 1013.49
1027.13 1026.89 1026.60 1026.24 1025.77 1025.25 1024.82 1024.33 1023.64 1022.86 1022.17 1021.54 1020.83 1020.15 1019.29 1018.14 1016.97 1016.12 1015.04 1013.98 1014.20 1013.69 1013.35 1012.89 1012.20 1012.00 1012.11 1012.21 1012.26 1012.45 1012.49 1012.61 1012.68 1012.72 1012.91 1013.19 1013.49 1013.39 1012.82 1013.08 1013.06 1013.11 1013.42 1013.35 1012.73 1012.71 1013.39
1027.62 1027.27 1026.92 1026.47 1026.04 1025.57 1025.12 1024.56 1023.91 1023.11 1022.38 1021.75 1021.05 1020.27 1019.16 1018.03 1016.77 1016.12 1015.49 1015.81 1016.35 1016.59 1014.41 1012.45 1012.09 1012.25 1011.91 1012.13 1012.44 1012.49 1012.72 1013.03 1012.98 1013.10 1013.18 1013.89 1013.41 1012.34 1012.56 1012.80 1013.22 1013.34 1013.54 1013.20 1012.86 1013.06 1013.57
1027.94 1027.60 1027.23 1026.70 1026.17 1025.60 1025.15 1024.61 1023.91 1023.22 1022.41 1021.73 1021.01 1020.24 1019.23 1018.27 1016.67 1016.08 1016.32 1016.41 1016.49 1016.79 1016.45 1012.60 1011.95 1011.81 1012.05 1012.28 1012.33 1012.61 1012.68 1012.60 1012.88 1013.43 1013.69 1013.72 1012.75 1012.59 1012.95 1013.18 1013.34 1013.07 1013.29 1013.01 1013.23 1013.45 1013.45
1028.02 1027.65 1027.26 1026.85 1026.39 1025.90 1025.28 1024.85 1024.08 1023.21 1022.56 1021.77 1020.98 1020.13 1019.43 1018.60 1016.86 1017.10 1016.56 1016.48 1016.47 1016.74 1016.19 1012.84 1012.23 1012.29 1012.26 1012.24 1012.62 1012.79 1012.78 1012.79 1013.03 1013.08 1013.22 1013.39 1012.80 1013.01 1013.42 1013.63 1013.79 1013.88 1013.26 1013.52 1013.97 1014.34 1014.65
1028.15 1027.89 1027.47 1027.03 1026.55 1026.02 1025.51 1024.88 1024.06 1023.31 1022.49 1021.59 1020.75 1020.06 1019.55 1018.92 1018.13 1017.41 1016.66 1016.42 1016.46 1016.89 1015.68 1012.46 1012.36 1012.51 1012.33 1012.74 1013.00 1013.00 1013.28 1013.14 1012.81 1012.80 1013.38 1012.68 1013.10 1013.49 1013.78 1013.61 1013.63 1013.75 1013.92 1014.26 1014.65 1015.13 1015.51
1028.36 1028.00 1027.55 1027.14 1026.62 1026.18 1025.56 1024.95 1024.16 1023.28 1022.42 1021.66 1020.56 1019.61 1019.09 1018.49 1018.21 1016.78 1016.37 1016.31 1016.60 1016.72 1014.00 1012.22 1012.22 1012.38 1012.49 1012.56 1012.78 1013.29 1013.52 1013.54 1013.45 1013.30 1013.17 1013.19 1013.51 1013.65 1013.73 1014.25 1014.34 1014.40 1014.61 1015.07 1015.51 1015.97 1015.84
1028.57 1028.00 1027.66 1027.39 1026.90 1026.44 1025.74 1024.96 1024.12 1023.21 1022.41 1021.61 1020.39 1019.05 1018.43 1018.29 1017.49 1016.68 1016.63 1016.69 1016.90 1015.59 1012.37 1012.36 1012.14 1012.14 1012.23 1012.33 1012.62 1013.12 1013.57 1013.79 1013.85 1013.75 1013.58 1013.51 1013.49 1013.87 1014.25 1014.85 1015.04 1014.96 1015.16 1015.61 1016.10 1016.49 1014.80
1028.66 1028.16 1027.67 1027.37 1026.92 1026.37 1025.64 1024.84 1024.00 1023.08 1022.15 1021.22 1020.01 1018.68 1017.72 1017.48 1017.10 1016.95 1017.15 1017.26 1016.67 1014.31 1013.09 1012.42 1012.27 1012.01 1012.22 1012.11 1012.31 1012.89 1013.32 1013.53 1013.16 1013.64 1013.82 1013.91 1013.71 1014.06 1014.29 1014.49 1014.92 1015.38 1015.04 1014.82 1014.63 1014.98 1014.72
1028.66 1028.16 1027.82 1027.39 1026.82 1026.28 1025.67 1024.97 1024.06 1023.13 1022.08 1020.90 1019.55 1018.48 1018.00 1017.17 1017.04 1017.01 1017.51 1017.89 1016.28 1015.03 1014.27 1013.76 1012.98 1012.58 1012.58 1012.83 1013.10 1013.35 1013.75 1013.87 1014.47 1014.31 1015.03 1015.06 1014.54 1014.60 1015.01 1015.29 1015.24 1015.55 1015.46 1014.59 1014.59 1014.95 1015.30
1028.70 1028.18 1027.79 1027.41 1026.96 1026.42 1025.62 1024.91 1024.01 1022.97 1022.13 1020.85 1019.64 1019.04 1018.05 1017.28 1017.15 1017.51 1017.98 1017.19 1016.20 1015.21 1014.76 1014.52 1014.62 1014.05 1013.93 1013.91 1014.00 1013.83 1013.94 1014.55 1015.30 1015.66 1015.42 1016.23 1016.18 1015.62 1015.66 1015.55 1016.16 1016.08 1016.76 1015.85 1015.89 1015.66 1015.04
1028.56 1028.10 1027.80 1027.42 1027.03 1026.48 1025.67 1024.77 1023.93 1022.97 1022.14 1021.05 1020.75 1019.73 1018.32 1017.78 1017.65 1018.39 1018.53 1017.77 1016.73 1016.01 1015.66 1015.80 1015.67 1015.35 1015.26 1014.90 1014.68 1014.64 1014.23 1014.99 1015.69 1015.98 1015.97 1016.51 1016.79 1016.38 1016.15 1016.05 1015.81 1016.34 1016.64 1017.24 1017.02 1016.34 1015.69
1028.35 1028.05 1027.86 1027.45 1026.99 1026.51 1025.76 1024.63 1023.90 1022.97 1022.29 1021.57 1021.79 1021.13 1018.81 1018.42 1018.86 1019.40 1019.30 1018.44 1017.72 1016.89 1016.55 1016.52 1016.53 1016.61 1016.29 1015.96 1015.68 1015.51 1015.10 1015.19 1015.71 1016.02 1016.32 1016.46 1016.79 1016.65 1016.33 1016.64 1016.52 1016.46 1016.75 1016.91 1016.53 1016.33 1015.90
1028.20 1027.89 1027.65 1027.26 1026.82 1026.34 1025.62 1024.84 1024.18 1023.24 1022.73 1022.87 1022.81 1021.57 1019.22 1018.71 1019.67 1020.27 1019.81 1019.54 1018.94 1018.34 1018.16 1018.16 1017.49 1017.51 1017.38 1017.11 1016.89 1015.80 1015.57 1015.15 1015.60 1016.09 1016.25 1016.84 1016.92 1016.77 1016.32 1017.23 1017.04 1016.67 1016.69 1016.15 1015.81 1015.66 1014.94
1028.03 1027.80 1027.49 1026.98 1026.41 1026.13 1025.32 1024.75 1024.25 1023.75 1023.32 1023.23 1023.47 1022.66 1020.90 1020.43 1021.00 1021.23 1020.83 1019.97 1019.35 1018.85 1018.25 1018.29 1018.21 1018.35 1018.22 1017.77 1017.49 1016.50 1016.28 1015.50 1015.59 1015.83 1016.03 1016.41 1016.27 1016.30 1015.82 1015.32 1015.25 1015.88 1015.75 1015.58 1015.66 1015.48 1014.11
1027.70 1027.41 1027.15 1026.77 1026.10 1025.52 1024.99 1024.49 1023.98 1023.89 1023.73 1023.74 1023.78 1023.33 1022.50 1022.25 1021.98 1022.31 1022.04 1021.05 1020.10 1019.57 1018.92 1018.85 1018.49 1018.61 1018.81 1017.99 1017.44 1017.01 1016.76 1016.76 1016.65 1016.15 1016.18 1016.54 1016.33 1015.82 1015.18 1014.77 1014.81 1014.81 1014.91 1014.65 1014.74 1014.03 1014.40
1027.30 1027.18 1026.68 1026.15 1025.59 1025.29 1024.67 1024.28 1023.92 1023.74 1023.57 1023.87 1024.19 1024.05 1023.34 1023.01 1022.79 1022.75 1022.22 1021.52 1020.61 1020.21 1020.35 1019.73 1019.24 1019.07 1019.29 1018.94 1018.53 1017.55 1017.57 1017.28 1016.82 1016.85 1016.85 1016.62 1016.18 1015.93 1015.27 1014.52 1014.41 1014.57 1013.97 1013.57 1013.71 1013.61 1013.73
1026.63 1026.56 1026.11 1025.80 1025.29 1024.77 1024.39 1024.21 1023.79 1023.65 1023.40 1023.81 1024.02 1023.71 1023.79 1023.13 1022.98 1023.07 1022.61 1021.84 1021.33 1021.03 1020.08 1019.81 1019.62 1019.30 1019.02 1018.57 1018.33 1017.79 1017.46 1017.03 1016.66 1016.31 1016.47 1016.80 1016.33 1016.07 1015.21 1014.55 1014.56 1014.39 1012.89 1012.88 1012.98 1013.15 1013.09
1026.17 1025.78 1025.36 1024.99 1024.45 1024.37 1023.87 1023.69 1023.41 1023.38 1023.11 1023.49 1023.61 1023.60 1023.44 1023.01 1023.22 1022.89 1022.45 1022.10 1021.51 1021.32 1020.91 1019.93 1019.67 1019.57 1018.71 1018.53 1018.33 1017.38 1016.85 1016.28 1015.96 1015.51 1015.69 1015.60 1015.97 1016.11 1015.29 1014.90 1014.38 1012.42 1012.22 1012.26 1012.68 1012.87 1013.17
1025.49 1025.03 1024.55 1024.36 1023.82 1023.62 1023.40 1023.24 1022.95 1022.74 1022.53 1022.90 1022.88 1023.06 1022.90 1022.52 1022.53 1022.36 1022.02 1021.73 1021.41 1021.02 1020.71 1019.81 1019.27 1019.20 1019.13 1019.08 1018.69 1017.78 1016.94 1016.30 1015.52 1015.58 1015.50 1015.60 1015.83 1015.37 1015.17 1014.77 1014.14 1012.92 1012.62 1012.83 1012.98 1013.64 1014.06
1024.84 1024.29 1023.93 1023.52 1023.22 1023.01 1022.84 1022.76 1022.60 1022.31 1022.01 1021.98 1022.12 1022.17 1022.40 1022.21 1021.98 1021.10 1021.57 1021.59 1021.51 1020.98 1020.32 1019.57 1019.45 1019.46 1019.44 1019.25 1018.75 1018.37 1017.75 1016.77 1016.34 1015.88 1015.72 1015.74 1015.75 1016.11 1015.69 1015.27 1014.57 1013.11 1013.07 1013.27 1013.68 1014.30 1014.53
1023.69 1023.51 1023.06 1022.83 1022.53 1022.23 1022.05 1022.06 1021.97 1021.62 1021.51 1021.37 1021.26 1021.69 1021.73 1021.45 1020.79 1020.78 1021.00 1020.79 1020.75 1020.78 1020.69 1020.13 1019.99 1019.76 1019.72 1019.21 1018.87 1018.25 1017.48 1016.79 1016.82 1016.21 1016.00 1016.22 1016.24 1016.32 1015.65 1015.23 1014.29 1013.27 1013.50 1013.86 1014.41 1015.29 1015.04
1022.70 1022.49 1022.24 1021.94 1021.81 1021.51 1021.29 1021.25 1021.22 1021.03 1020.84 1020.98 1020.73 1020.82 1021.07 1020.55 1019.84 1019.64 1019.57 1019.83 1019.92 1020.07 1020.19 1019.81 1019.93 1019.62 1019.53 1019.24 1018.66 1017.70 1017.49 1016.82 1016.60 1015.81 1015.61 1016.03 1016.21 1016.17 1016.04 1015.58 1014.59 1013.49 1014.37 1014.39 1014.30 1014.94 1015.48
1021.75 1021.41 1021.15 1020.87 1020.87 1020.70 1020.60 1020.48 1020.40 1020.28 1020.13 1020.18 1020.38 1020.15 1020.15 1020.16 1019.19 1018.92 1018.59 1018.22 1018.26 1018.22 1019.16 1019.22 1019.09 1018.95 1018.37 1018.33 1017.97 1017.37 1016.97 1016.78 1016.21 1015.35 1014.88 1015.25 1014.80 1014.82 1015.05 1013.68 1013.13 1013.39 1013.98 1014.03 1014.26 1015.07 1015.77
Wind_Speed
17 17 18 19 19 19 20 20 19 20 22 23 23 23 24 24 24 23 21 18 18 18 15 12 11 8 3 1 9 3 2 2 1 1 5 4 4 3 4 2 3 5 2 2 3 4 5
17 17 17 17 17 17 19 18 19 19 21 23 24 24 24 25 24 24 23 21 18 16 13 11 8 5 2 4 3 3 3 1 2 1 2 4 5 3 4 4 6 1 2 4 6 5 4
14 15 17 18 18 18 20 20 20 21 21 23 25 25 26 26 26 26 26 25 19 16 11 7 5 2 2 11 3 2 5 1 1 1 1 0 0 1 1 3 1 1 5 5 7 6 5
18 20 20 21 20 20 21 21 21 22 22 23 24 25 25 26 27 27 28 26 22 13 7 2 4 2 7 1 1 3 4 1 3 2 1 2 1 3 2 1 3 2 1 3 1 7 3
21 21 21 21 22 22 22 22 23 22 23 24 24 24 24 26 28 29 28 26 19 3 2 4 2 3 8 1 2 1 2 0 3 3 2 2 0 2 1 3 4 2 6 7 7 9 6
21 21 21 22 22 23 23 23 23 24 24 25 25 25 25 27 26 28 28 24 5 3 1 2 1 2 1 3 2 1 1 1 1 2 1 1 3 1 2 4 8 7 6 5 7 6 5
20 20 21 22 22 23 24 25 25 25 26 24 25 25 26 28 30 28 14 6 8 5 4 8 6 3 3 1 2 1 1 1 1 1 4 1 3 9 13 7 1 1 4 6 5 3 6
20 21 21 21 21 22 23 24 25 25 25 26 25 25 25 27 29 25 4 5 1 1 15 4 8 7 3 2 2 3 2 2 3 5 5 4 10 9 5 6 8 6 6 11 5 1 6
20 20 20 21 21 22 23 24 25 26 26 28 26 26 27 27 32 4 2 2 1 4 3 7 3 3 2 4 3 3 3 4 4 3 6 6 2 4 4 4 6 5 7 6 8 3 4
18 19 20 21 21 23 23 25 26 26 26 26 26 26 25 29 6 5 2 2 0 3 3 7 0 2 2 2 1 0 1 2 2 7 6 7 2 5 5 6 8 6 2 2 1 1 5
18 19 20 21 22 22 24 25 26 27 27 28 28 28 26 22 6 4 3 3 1 3 7 2 1 2 1 1 1 1 2 2 5 5 6 8 6 5 6 7 6 5 2 2 2 1 4
18 19 20 21 21 22 23 24 25 25 25 27 30 30 27 5 4 7 5 2 3 4 10 1 2 2 3 1 1 1 1 2 1 1 3 5 1 3 3 3 2 4 3 3 4 2 2
17 19 20 21 21 22 23 24 24 25 26 28 30 31 21 5 5 4 4 3 5 4 5 2 2 1 3 4 3 4 3 1 3 3 4 2 5 1 3 3 4 1 4 2 3 1 7
17 19 19 20 21 21 22 22 22 23 24 26 30 32 6 4 5 4 3 3 4 3 6 4 5 6 6 2 2 3 2 4 6 3 3 5 7 7 4 4 3 5 4 6 7 4 4
17 18 19 20 21 21 20 21 23 23 23 27 27 4 4 3 4 0 2 1 5 4 5 9 10 5 2 3 2 3 3 3 5 3 2 5 5 4 5 4 1 2 7 1 3 2 1
17 18 19 20 21 22 22 22 21 23 24 25 10 5 4 6 4 3 2 5 5 3 6 6 3 4 5 6 6 5 3 3 2 8 7 7 8 3 2 2 4 4 4 2 2 3 5
16 18 19 19 20 21 21 22 21 23 25 22 4 6 4 6 3 5 3 6 5 3 6 6 3 9 7 5 4 4 3 1 2 0 2 5 4 0 2 4 7 3 4 3 2 3 3
16 18 19 19 20 21 21 20 20 21 22 9 3 4 4 5 4 2 2 3 9 6 6 4 4 3 3 4 4 6 5 1 7 3 1 2 3 4 6 4 5 3 4 5 3 4 4
17 17 18 19 19 20 19 19 20 20 20 3 4 4 4 3 1 2 5 7 5 7 8 9 5 1 3 3 6 6 4 3 9 7 6 5 4 4 2 2 1 4 6 7 1 0 6
16 17 17 18 17 18 18 20 19 20 19 4 3 5 5 4 3 3 7 5 6 5 6 5 4 2 3 5 7 8 5 5 6 7 6 5 4 8 10 5 4 4 6 9 7 3 5
16 16 16 18 17 16 18 19 19 18 17 3 1 4 1 4 5 12 7 4 7 8 3 2 2 4 6 6 4 4 5 6 5 5 4 3 5 5 9 12 9 9 11 11 12 16 9
17 17 16 16 16 16 15 17 19 18 13 1 3 2 3 3 3 4 6 4 12 6 6 9 4 9 9 8 11 17 8 3 4 2 4 2 5 3 5 13 11 9 14 13 13 15 13
17 17 16 17 16 16 14 16 16 18 9 1 2 3 1 4 0 2 4 4 9 13 9 5 14 11 5 12 7 11 14 15 14 8 6 4 4 3 5 1 3 4 11 9 3 5 6
19 18 17 16 15 16 15 15 15 17 11 2 3 2 3 3 2 4 5 14 12 5 14 15 6 6 6 5 9 10 13 15 14 19 12 8 4 3 5 2 7 7 3 6 8 5 3
21 19 17 16 15 15 16 15 14 14 14 3 2 3 3 3 3 9 7 6 6 9 8 11 13 3 4 4 5 6 6 4 2 2 2 4 5 4 4 3 5 10 2 3 4 2 2
22 21 18 16 16 15 17 15 16 13 13 2 3 2 2 2 7 6 3 4 4 4 6 5 3 3 2 2 2 2 4 5 6 3 2 2 1 1 1 3 4 7 1 1 1 4 1
22 21 19 17 16 16 18 15 16 14 12 4 2 4 3 3 6 6 6 5 4 2 4 5 5 3 1 2 3 5 5 3 2 3 4 1 2 4 4 5 7 4 5 3 3 2 2
22 20 20 18 17 18 16 17 16 15 15 6 3 5 4 3 6 8 6 6 3 3 5 5 4 3 1 3 3 3 3 5 1 4 6 5 4 4 1 0 8 6 3 6 4 3 2
23 21 20 19 18 19 17 19 16 15 15 9 3 3 5 5 6 3 9 11 10 17 8 6 5 4 3 2 3 4 5 1 5 11 3 3 8 5 9 8 1 5 3 3 4 3 4
Wind_Direction
27 24 21 19 17 13 10 6 1 358 357 354 353 349 346 343 341 337 333 324 312 306 298 289 291 306 355 233 254 208 320 325 235 222 216 195 174 188 214 244 201 217 222 205 177 198 253
23 19 16 15 11 8 5 3 359 355 353 354 352 349 344 341 339 335 331 327 316 309 301 289 279 299 176 242 133 96 10 348 22 16 250 186 223 182 238 238 188 200 242 255 213 218 240
20 15 11 8 8 7 5 7 3 358 356 354 352 348 344 340 337 333 329 325 321 312 303 284 251 242 238 243 142 83 32 283 308 104 260 17 93 183 264 288 322 112 296 304 223 201 229
24 26 20 16 15 15 12 10 6 2 1 357 353 349 344 339 334 331 326 321 319 301 290 255 193 181 242 74 135 41 345 108 356 258 231 267 129 204 203 190 8 303 105 287 250 146 201
27 23 21 17 16 12 10 6 3 0 358 353 349 345 342 339 336 333 324 317 318 281 230 149 130 138 271 163 130 136 70 122 318 297 286 293 258 185 78 125 352 270 248 212 301 188 143
27 23 20 16 12 8 5 2 359 357 355 351 348 346 340 336 334 330 321 312 293 338 207 176 289 358 220 224 156 168 5 113 105 154 52 110 51 131 39 131 223 220 228 252 240 202 186
22 19 15 10 8 5 0 358 355 354 352 350 347 341 338 334 330 331 330 355 11 340 22 209 224 250 150 150 91 130 55 91 159 101 172 223 121 211 214 223 324 342 250 266 274 186 191
21 18 14 11 6 4 359 356 354 351 349 345 342 339 336 333 327 323 338 62 71 224 303 255 250 250 105 135 287 158 33 151 155 204 131 55 234 214 177 187 226 240 261 263 266 355 193
22 18 13 11 9 6 2 357 354 349 347 344 340 336 335 335 321 25 23 67 47 116 260 300 216 182 166 149 207 185 147 158 181 216 206 181 260 108 169 210 209 223 204 217 229 299 242
19 16 13 8 6 3 0 355 352 348 344 338 336 334 334 336 343 336 310 319 35 103 328 269 154 33 70 110 238 125 18 141 213 212 192 227 254 188 200 232 177 261 211 116 291 62 240
18 13 10 6 3 2 358 354 351 348 345 338 334 332 331 326 279 302 283 334 139 72 343 309 58 333 61 224 58 279 352 60 217 194 129 244 182 192 202 219 169 231 96 95 84 127 19
14 11 8 3 1 357 355 353 350 345 343 340 333 329 329 323 284 245 313 346 72 48 255 350 81 13 342 143 239 72 350 13 27 312 242 254 328 198 206 71 28 128 95 62 55 86 288
9 9 5 358 357 353 351 349 348 346 344 336 330 325 325 272 244 341 342 32 36 172 315 355 67 197 205 234 228 178 179 240 218 297 248 214 206 125 140 113 12 125 117 281 286 348 237
6 4 358 354 350 349 348 346 345 347 345 336 327 317 294 240 283 285 329 29 212 272 288 358 9 272 223 4 207 178 235 274 234 222 252 227 278 173 172 199 196 192 200 199 238 210 255
358 356 352 348 344 343 341 341 345 346 341 337 324 303 299 290 342 54 83 358 235 259 335 347 335 325 301 61 326 343 240 250 45 33 260 338 283 32 33 358 65 144 217 322 53 156 302
356 353 349 347 345 341 340 338 342 349 347 341 329 321 291 327 14 58 79 230 252 341 349 10 296 276 314 330 333 349 198 33 68 51 37 351 297 351 323 19 62 102 323 336 46 252 243
349 349 346 342 346 339 338 344 344 351 354 346 10 354 296 349 52 41 231 237 295 42 8 358 318 287 289 304 257 257 277 94 222 120 111 201 210 28 6 199 192 151 185 93 277 255 295
346 345 340 340 343 340 342 351 353 355 358 5 14 342 299 360 25 33 287 282 335 335 19 1 359 311 276 4 290 278 249 310 178 244 253 191 179 256 244 36 52 92 147 168 178 214 221
339 336 338 336 341 339 345 354 354 359 2 355 342 283 310 82 71 319 323 333 354 11 7 345 315 6 347 303 308 245 262 234 172 181 174 179 231 314 226 69 221 213 195 204 237 21 199
331 328 330 330 337 339 349 356 354 354 357 33 344 320 320 18 96 34 347 302 330 293 273 213 257 260 289 267 228 278 281 274 198 208 193 166 204 208 246 275 229 216 205 198 166 203 224
319 320 321 323 331 339 350 350 352 350 355 36 31 273 68 320 349 332 338 285 312 319 276 306 271 253 310 304 277 255 305 350 289 276 186 195 244 211 251 266 271 260 266 249 208 240 252
307 310 314 318 328 338 342 348 348 339 352 31 289 308 353 275 276 326 305 253 284 301 349 309 263 318 331 289 281 290 293 232 222 236 211 228 225 239 262 257 246 255 263 260 260 259 252
307 304 306 316 325 333 339 337 339 335 343 229 281 319 233 246 332 275 251 296 326 322 301 257 314 301 279 286 277 278 270 269 261 249 208 212 211 187 253 241 85 279 238 234 233 209 185
298 302 305 307 318 322 331 325 329 335 318 199 193 222 237 249 186 223 258 290 283 284 294 289 280 267 256 354 298 269 260 256 257 258 247 226 182 194 266 153 243 241 232 210 215 236 239
298 293 300 306 312 314 322 312 316 324 320 203 201 210 235 241 160 274 251 258 302 292 276 275 272 248 19 328 287 334 316 300 284 96 279 248 255 240 235 191 318 308 165 151 175 249 61
294 296 294 299 306 311 310 311 302 311 318 275 214 155 237 236 229 221 198 232 253 264 296 247 2 15 113 254 269 250 243 242 298 306 337 213 120 230 18 266 237 236 178 187 129 297 287
291 292 294 295 297 300 304 304 292 294 297 290 228 183 242 234 253 167 204 203 189 226 252 314 306 293 69 228 242 242 243 221 261 247 213 62 338 218 252 260 271 226 166 212 121 250 221
286 286 291 291 289 291 297 295 283 283 289 287 241 199 227 251 257 209 210 230 217 182 263 287 306 332 162 212 235 251 204 241 6 230 193 184 175 224 93 134 280 148 101 188 167 181 233
284 282 283 283 286 288 292 288 281 275 283 287 246 222 213 238 269 247 244 222 216 249 254 206 206 200 227 215 222 242 233 177 201 277 191 276 192 201 191 216 176 183 211 194 134 158 230